Regional Weather Roundup
Issued by NWS Grand Forks, ND

Home | Current Version | Previous Version | Graphics & Text | Print | Product List | Glossary On
Versions: 1 2 3 4 5 6 7 8 9 10 11 12 13 14 15 16 17 18 19 20 21 22 23 24 25 26 27 28 29 30 31 32 33 34 35 36 37 38 39 40 41 42 43 44 45 46 47 48 49 50
000
ASUS43 KFGF 272031
RWRFGF
PRAIRIE TO PINES  WEATHER ROUNDUP
NATIONAL WEATHER SERVICE EASTERN NORTH DAKOTA/GRAND FORKS ND
300 PM CDT FRI MAR 27 2015

 **SATELLITE DATA USED TO AUGMENT SKY COVER AT AUTOMATED STATIONS**
 *****  WEATHER ACROSS EASTERN NORTH DAKOTA  *****

CITY           SKY/WX    TMP DP  RH WIND       PRES   REMARKS
GRAND FORKS    CLOUDY    34  17  50 S13G20    30.10F WCI  25
GRAND FRKS AFB CLOUDY    32  21  64 SE8       30.08F WCI  25
GRAND FRKS NWS   N/A     32 N/A N/A S16         N/A  WCI  21
DEVILS LAKE    CLOUDY    28  25  86 S16       29.99S WCI  17
FARGO          CLOUDY    36   7  29 S14       30.10F
WAHPETON ARPT  CLOUDY    34   5  29 S14       30.11F WCI  24
$$

 ***** WEATHER ACROSS CENTRAL AND WESTERN NORTH DAKOTA  *****

CITY           SKY/WX    TMP DP  RH WIND       PRES   REMARKS
BISMARCK       CLOUDY    44  30  57 S12       29.93F
MINOT          PTSUNNY   50  35  56 W12G17    29.85F
JAMESTOWN      LGT SNOW  27  24  89 S13       30.01F FOG     WCI  16
MINOT AFB      PTSUNNY   48  42  77 W7        29.85F
GARRISON         N/A     47  37  68 W8        29.88F
WILLISTON      PTSUNNY   61  36  39 NW21      29.91F
DICKINSON      PTSUNNY   65  34  31 NW21G31   29.87F
HETTINGER      MOSUNNY   64  34  32 NW23G32   29.90F
$$

 *****  OTHER AIRPORT OBSERVATIONS IN OUR AREA  *****

CITY           SKY/WX    TMP DP  RH WIND       PRES   REMARKS
WALHALLA         N/A     28  28 100 SE16      30.06S FOG     WCI  17
GRAFTON AIRPOR NOT AVBL
VALLEY CITY AR LGT SNOW  28  28 100 S14       30.04F WCI  17
CANDO          MIX PCPN  28  27  93 SE18      29.97F WCI  16
CAVALIER APRT  MIX PCPN  28  27  93 S12G17    30.07F WCI  18
GWINNER        MOCLDY    34  21  60 SW12        N/A
SHEYENNE NWR     N/A     36  14  40 S8        29.95
ROLLA          LGT SNOW  27  27 100 S13G21    29.95R WCI  16
 ***** THE ABOVE OBSERVATIONS ARE NON NWS ARE NOT QUALITY
       CONTROLLED AND MAY MIS-REPORT RAIN FOR SNOW...
$$

  *****  WEATHER ACROSS NORTHERN MINNESOTA  *****

CITY           SKY/WX    TMP DP  RH WIND       PRES   REMARKS
FLAG ISLAND    CLOUDY    25  10  54 SE9       30.12F WCI  15
WARROAD        CLOUDY    32  12  43 S7        30.12F
ROSEAU         CLOUDY    32  12  43 S7        30.11F
HALLOCK        PTSUNNY   32  18  55 S14       30.09F WCI  22
THF RVR FALLS  CLOUDY    34  10  37 S6        30.11F
BAUDETTE       MOSUNNY   32   7  35 S7        30.11F
WASKISH        PTSUNNY   30  14  51 CALM      30.13F
CROOKSTON      CLOUDY    34   7  32 SW9       30.12F
STEPHEN NDAWN    N/A     32  12  43 S12         N/A  WCI  23
GREENBUSH NDAW   N/A     30  16  55 S10         N/A  WCI  21
$$
  *****  WEATHER ACROSS CENTRAL AND WEST MINNESOTA  *****

CITY           SKY/WX    TMP DP  RH WIND       PRES   REMARKS
FOSSTON        PTSUNNY   36   5  27 S9        30.10F
BEMIDJI        MOSUNNY   34   3  26 S7        30.09F
PARK RAPIDS    MOSUNNY   35   2  24 VRB7      30.10F
ELBOW LAKE     FAIR      32   8  36 S9        30.12F WCI  24
WADENA         MOSUNNY   32   3  29 S6        30.11F
DETROIT LAKES  CLOUDY    32   5  32 S10       30.11F WCI  24
MOORHEAD       CLOUDY    36  -4  18 S13       30.11F
FERGUS FALLS   CLOUDY    32   3  29 S9        30.14F WCI  24
MORRIS MN      CLOUDY    34  14  44 S9G16     30.12F
STAPLES        SUNNY     34   1  25 W7        30.12F
$$
  *****  WEATHER ELSEWHERE ACROSS MINNESOTA  *****

CITY           SKY/WX    TMP DP  RH WIND       PRES   REMARKS
DULUTH         SUNNY     28   8  43 SE10      30.14F WCI  19
INTRNTL FALLS  SUNNY     33   5  30 VRB5      30.13F
ELY            SUNNY     30  -8  19 CALM      30.12F
CLOQUET        SUNNY     32   0  25 CALM      30.13F
WHEATON        CLOUDY    32  14  47 S10       30.13F WCI  24
BRAINERD       SUNNY     34   1  24 MISG      30.14F
HIBBING        SUNNY     33   1  25 VRB3      30.11F
ALEXANDRIA     PTSUNNY   30   6  36 SW8       30.14F WCI  22
SAINT CLOUD    SUNNY     33   1  25 SE7       30.16F
MINNEAPOLIS    MOSUNNY   34  -1  22 E8        30.19F
$$

  *****  WEATHER ACROSS SOUTH DAKOTA  *****

CITY           SKY/WX    TMP DP  RH WIND       PRES   REMARKS
SIOUX FALLS    CLOUDY    35   9  33 S7        30.12F
BROOKINGS      NOT AVBL
WATERTOWN      CLOUDY    34  14  43 S10       30.08F
HURON          LGT SNOW  31  26  82 S13       30.09F WCI  21
SISSETON         N/A     36   9  32 S8G17     30.09F
ABERDEEN       LGT SNOW  30  25  81 S15       30.07S WCI  19
MITCHELL       CLOUDY    34  25  69 S13       30.11F WCI  25
PIERRE         MOSUNNY   46  34  62 S16       29.96F
MOBRIDGE       CLOUDY    41  32  70 S17       29.94F
RAPID CITY     PTSUNNY   68  36  30 NW26G36   29.94F
$$

  *****  SOME WEATHER IN NEARBY STATES *****

CITY           SKY/WX    TMP DP  RH WIND       PRES   REMARKS
GLASGOW MT     MOSUNNY   66  36  32 W9        29.92F
GREAT FALLS MT MOSUNNY   71  25  17 W22G31    30.00F
CHEYENNE WY    MOSUNNY   62  26  25 NW25G36   30.12F
SCOTTSBLUFF NE MOSUNNY   70  35  27 W26G35    30.02F
OMAHA NE       CLOUDY    40   9  28 CALM      30.18F
DES MOINES IA  CLOUDY    40  10  29 E6        30.19F
DAVENPORT IA   SUNNY     35   9  33 N13G20    30.18F
CHICAGO IL     MOSUNNY   30  12  47 NE15      30.15F WCI  19
EAU CLAIRE WI  SUNNY     34   5  29 N7        30.18F
LA CROSSE WI   SUNNY     34   9  35 W8        30.21F
$$

  *****  SOME NATIONAL WEATHER *****

CITY           SKY/WX    TMP DP  RH WIND       PRES   REMARKS
LA GUARDIA NY  CLOUDY    45  32  60 NW6       29.71F
RALEIGH NC     DRIZZLE   44  41  89 NE14      29.75F FOG
ATLANTA GA     MOSUNNY   58  29  33 NW22      29.83F
NEW ORLEANS LA MOSUNNY   67  36  31 NW15G21   30.04F
OKLAHOMA CITY  PTSUNNY   53  35  50 N6        30.22F
ALBUQUERQUE NM SUNNY     71  21  15 W10G18    30.24F
SALT LAKE CITY MOSUNNY   65  30  27 SE3       30.26F
LOS ANGELES CA MOSUNNY   78  53  41 W8        30.07F
BOISE ID       SUNNY     69  45  41 CALM      30.15F
SEATTLE WA     PTSUNNY   63  52  67 SW10      30.03F
$$

*** WEATHER ACROSS MANITOBA...SASKATCHEWAN AND ONTARIO ***
                ***ONTARIO***

CITY           SKY/WX    TMP DP  RH WIND       PRES   REMARKS
GERALDTON      SUNNY     23  -4  30 N6        30.14F WCI  16
THUNDER BAY    SUNNY     28   3  34 S14       30.20F WCI  17
SIOUX LOOKOUT  SUNNY     25   0  33 CALM      30.13F
TORONTO        PTSUNNY   25  10  54 N22       29.92R WCI  10
BIG TROUT LK   SUNNY     28   0  29 W12G17    30.05F WCI  18
PICKLE LAKE    SUNNY     27  -2  28 W5        30.09F WCI  21
DRYDEN         SUNNY     27   3  36 W3G17     30.12F
KENORA         PTSUNNY   27   1  33 S13       30.12F WCI  16
$$
                *** MANITOBA***

CITY           SKY/WX    TMP DP  RH WIND       PRES   REMARKS
BRANDON        LGT SNOW  32  27  80 S12       29.95S WCI  23
DAUPHIN        FLURRIES  30  28  93 E8        29.97S WCI  23
ISLAND LAKE    SUNNY     30  12  47 VRB2      30.07F
PILOT MOUND      N/A     28  25  86 S18         N/A  WCI  16
THE PAS        MOSUNNY   37  23  56 SE13      30.01S
THOMPSON       MOSUNNY   37  18  44 W9        30.00F
WINNIPEG       LGT SNOW  30  23  74 S17       30.09F WCI  18
LYNN LAKE      MOSUNNY   39  21  48 W10       29.94F
CHURCHILL      SUNNY     32  18  55 W16       29.86F WCI  21
GILLAM         SUNNY     32  18  55 NW12      30.00S WCI  23
$$
                ***SASKATCHEWAN***

CITY           SKY/WX    TMP DP  RH WIND       PRES   REMARKS
ESTEVAN        PTSUNNY   52  39  62 NW20      29.88
KINDERSLEY     PTSUNNY   55  41  58 VRB2      29.90S
LLOYDMINSTER   PTSUNNY   46  36  66 S7        29.88F
PRINCE ALBERT  CLOUDY    34  30  86 E7        29.95S
REGINA         PTSUNNY   50  43  76 NW8       29.89S
YORKTON        CLOUDY    36  30  80 E8        29.91R
N. BATTLEFORD  PTSUNNY   46  37  71 CALM      29.93F
LA RONGE       CLOUDY    34  28  80 SE8       29.96F
SASKATOON      PTSUNNY   46  37  71 N8        29.94S
SWIFT CURRENT  MOSUNNY   61  37  41 W9G17     29.88F
$$
NOTE: THESE ARE AUTOMATED STATIONS WITH LIMITED QUALITY CONTROL
      "FAIR" INDICATES FEW OR NO CLOUDS BELOW 12,000 FEET WITH NO
      SIGNIFICANT WEATHER AND/OR OBSTRUCTIONS TO VISIBILITY.
      SKY/WX - SKY CONDITION AND SIGNIFICANT WEATHER.
      TMP - AIR TEMPERATURE.    DP   - DEWPOINT TEMPERATURE.
      RH  - RELATIVE HUMIDITY.  PRES - PRESSURE.
      HX  - HEAT INDEX.         WCI  - WIND CHILL INDEX.
$



USA.gov is the U.S. government's official web portal to all federal, state and local government web resources and services.